Location: Harmony
(28.2000°N, 81.1500°W)
Time: 07:56:13
(UTC-04:00)

CENTAUR R/B - Pass Details

Date: 18 December 2017
Orbit: 804 x 1384 km, 63.5° (Epoch: 29 June)

Event Time Altitude Azimuth Distance (km) Brightness Sun altitude
Rises 21:00:49 0° 320° (NW) 4,294 6.2 -44.9°
Reaches altitude 10° 21:03:51 10° 312° (NW) 3,375 5.6 -45.5°
Enters shadow 21:10:44 36° 257° (WSW) 2,058 4.4 -47.0°
